{"data":{"norad_id":59210,"epoch":"2026-05-24T18:02:23.744544Z","epoch_age_seconds":103298,"freshness":"FRESH","line1":"1 59210U 24046K   26144.75166371 -.00000526  00000+0 -56325-5 0  9996","line2":"2 59210  53.1586 162.1308 0000921  89.9441 270.1665 15.30194163124697","mean_motion":15.30194163,"eccentricity":9.21e-5,"inclination_deg":53.1586,"raan_deg":162.1308,"arg_perigee_deg":89.9441,"mean_anomaly_deg":270.1665,"bstar":-5.6325e-6,"rev_number":12469,"period_min":94.105704675858,"perigee_km":474.60130237386,"apogee_km":475.86369303534,"semimajor_km":6853.3694977046,"source":"CELESTRAK","updated_at":"2026-05-25T13:38:18.865837Z"}}